Year,Month,Day,Hour,Minute,Value (Times are PST for windgust in km/hr)
2016,02,04,00,00,6.40
2016,02,04,00,01,8.10
2016,02,04,00,02,4.80
2016,02,04,00,03,4.80
2016,02,04,00,04,4.80
2016,02,04,00,05,1.60
2016,02,04,00,11,4.80
2016,02,04,00,12,4.80
2016,02,04,00,13,4.80
2016,02,04,00,14,1.60
2016,02,04,00,15,1.60
2016,02,04,00,18,4.80
2016,02,04,00,19,4.80
2016,02,04,00,20,3.20
2016,02,04,00,21,4.80
2016,02,04,00,22,3.20
2016,02,04,00,23,1.60
2016,02,04,00,24,3.20
2016,02,04,00,25,4.80
2016,02,04,00,26,3.20
2016,02,04,00,27,1.60
2016,02,04,00,28,4.80
2016,02,04,00,29,11.30
2016,02,04,00,30,8.10
2016,02,04,00,31,1.60
2016,02,04,00,32,4.80
2016,02,04,00,33,4.80
2016,02,04,00,34,6.40
2016,02,04,00,35,9.60
2016,02,04,00,36,9.60
2016,02,04,00,37,11.30
2016,02,04,00,38,8.10
2016,02,04,00,39,20.90
2016,02,04,00,40,16.10
2016,02,04,00,41,14.50
2016,02,04,00,42,9.60
2016,02,04,00,43,8.10
2016,02,04,00,44,4.80
2016,02,04,00,45,4.80
2016,02,04,00,46,8.10
2016,02,04,00,47,16.10
2016,02,04,00,48,16.10
2016,02,04,00,49,14.50
2016,02,04,00,50,17.70
2016,02,04,00,51,22.50
2016,02,04,00,52,19.30
2016,02,04,00,53,16.10
2016,02,04,00,54,12.90
2016,02,04,00,55,8.10
2016,02,04,00,56,16.10
2016,02,04,00,57,11.30
2016,02,04,00,58,11.30
2016,02,04,00,59,11.30
2016,02,04,01,00,17.70
2016,02,04,01,01,24.20
2016,02,04,01,02,20.90
2016,02,04,01,03,24.20
2016,02,04,01,04,20.90
2016,02,04,01,05,24.20
2016,02,04,01,06,16.10
2016,02,04,01,07,11.30
2016,02,04,01,08,11.30
2016,02,04,01,09,14.50
2016,02,04,01,10,12.90
2016,02,04,01,11,12.90
2016,02,04,01,12,9.60
2016,02,04,01,13,14.50
2016,02,04,01,14,16.10
2016,02,04,01,15,11.30
2016,02,04,01,16,19.30
2016,02,04,01,17,22.50
2016,02,04,01,18,14.50
2016,02,04,01,19,16.10
2016,02,04,01,20,11.30
2016,02,04,01,21,22.50
2016,02,04,01,22,17.70
2016,02,04,01,23,22.50
2016,02,04,01,24,27.40
2016,02,04,01,25,17.70
2016,02,04,01,26,22.50
2016,02,04,01,27,19.30
2016,02,04,01,28,11.30
2016,02,04,01,29,16.10
2016,02,04,01,30,16.10
2016,02,04,01,31,16.10
2016,02,04,01,32,20.90
2016,02,04,01,33,27.40
2016,02,04,01,34,27.40
2016,02,04,01,35,14.50
2016,02,04,01,36,22.50
2016,02,04,01,37,17.70
2016,02,04,01,38,16.10
2016,02,04,01,39,8.10
2016,02,04,01,40,8.10
2016,02,04,01,41,14.50
2016,02,04,01,42,14.50
2016,02,04,01,43,17.70
2016,02,04,01,44,16.10
2016,02,04,01,45,17.70
2016,02,04,01,46,14.50
2016,02,04,01,47,6.40
2016,02,04,01,48,4.80
2016,02,04,01,49,4.80
2016,02,04,01,50,3.20
2016,02,04,01,51,3.20
2016,02,04,01,52,1.60
2016,02,04,01,53,8.10
2016,02,04,01,54,6.40
2016,02,04,01,55,6.40
2016,02,04,01,56,8.10
2016,02,04,01,57,6.40
2016,02,04,01,58,4.80
2016,02,04,01,59,4.80
2016,02,04,02,00,1.60
2016,02,04,02,01,3.20
2016,02,04,02,02,3.20
2016,02,04,02,03,3.20
2016,02,04,02,04,3.20
2016,02,04,02,05,1.60
2016,02,04,02,06,3.20
2016,02,04,02,07,1.60
2016,02,04,02,10,1.60
2016,02,04,02,11,3.20
2016,02,04,02,17,1.60
2016,02,04,02,18,4.80
2016,02,04,02,19,1.60
2016,02,04,02,23,1.60
2016,02,04,02,29,1.60
2016,02,04,02,30,1.60
2016,02,04,02,38,3.20
2016,02,04,02,39,3.20
2016,02,04,02,40,3.20
2016,02,04,02,55,3.20
2016,02,04,02,56,1.60
2016,02,04,02,58,3.20
2016,02,04,02,59,1.60
2016,02,04,03,00,1.60
2016,02,04,03,09,1.60
2016,02,04,03,15,1.60
2016,02,04,03,16,1.60
2016,02,04,03,17,3.20
2016,02,04,03,27,3.20
2016,02,04,03,44,1.60
2016,02,04,03,50,1.60
2016,02,04,03,51,1.60
2016,02,04,03,52,1.60
2016,02,04,03,53,1.60
2016,02,04,03,55,4.80
2016,02,04,03,56,1.60
2016,02,04,03,57,3.20
2016,02,04,03,58,3.20
2016,02,04,04,00,1.60
2016,02,04,04,01,4.80
2016,02,04,04,02,1.60
2016,02,04,04,03,3.20
2016,02,04,04,04,4.80
2016,02,04,04,05,6.40
2016,02,04,04,06,6.40
2016,02,04,04,07,6.40
2016,02,04,04,08,4.80
2016,02,04,04,09,3.20
2016,02,04,04,10,4.80
2016,02,04,04,11,11.30
2016,02,04,04,12,11.30
2016,02,04,04,13,14.50
2016,02,04,04,14,14.50
2016,02,04,04,15,11.30
2016,02,04,04,16,3.20
2016,02,04,04,17,11.30
2016,02,04,04,18,9.60
2016,02,04,04,19,1.60
2016,02,04,04,20,4.80
2016,02,04,04,21,3.20
2016,02,04,04,22,4.80
2016,02,04,04,23,3.20
2016,02,04,04,24,6.40
2016,02,04,04,25,4.80
2016,02,04,04,26,3.20
2016,02,04,04,27,1.60
2016,02,04,04,29,1.60
2016,02,04,04,30,1.60
2016,02,04,04,31,1.60
2016,02,04,04,34,4.80
2016,02,04,04,35,4.80
2016,02,04,04,36,4.80
2016,02,04,04,37,8.10
2016,02,04,04,38,3.20
2016,02,04,04,39,8.10
2016,02,04,04,40,4.80
2016,02,04,04,41,6.40
2016,02,04,04,42,11.30
2016,02,04,04,43,8.10
2016,02,04,04,44,9.60
2016,02,04,04,45,14.50
2016,02,04,04,46,11.30
2016,02,04,04,47,16.10
2016,02,04,04,48,8.10
2016,02,04,04,49,16.10
2016,02,04,04,50,16.10
2016,02,04,04,51,6.40
2016,02,04,04,52,14.50
2016,02,04,04,53,11.30
2016,02,04,04,54,6.40
2016,02,04,04,55,4.80
2016,02,04,04,56,11.30
2016,02,04,04,57,9.60
2016,02,04,04,58,11.30
2016,02,04,04,59,17.70
2016,02,04,05,00,14.50
2016,02,04,05,01,6.40
2016,02,04,05,02,6.40
2016,02,04,05,03,16.10
2016,02,04,05,04,9.60
2016,02,04,05,05,6.40
2016,02,04,05,06,8.10
2016,02,04,05,07,9.60
2016,02,04,05,08,6.40
2016,02,04,05,09,4.80
2016,02,04,05,10,12.90
2016,02,04,05,11,4.80
2016,02,04,05,12,3.20
2016,02,04,05,13,3.20
2016,02,04,05,14,8.10
2016,02,04,05,15,6.40
2016,02,04,05,16,1.60
2016,02,04,05,20,8.10
2016,02,04,05,21,14.50
2016,02,04,05,22,12.90
2016,02,04,05,23,4.80
2016,02,04,05,24,1.60
2016,02,04,05,25,3.20
2016,02,04,05,26,11.30
2016,02,04,05,27,4.80
2016,02,04,05,28,1.60
2016,02,04,05,30,3.20
2016,02,04,05,31,4.80
2016,02,04,05,32,4.80
2016,02,04,05,33,3.20
2016,02,04,05,34,6.40
2016,02,04,05,35,3.20
2016,02,04,05,36,3.20
2016,02,04,05,38,3.20
2016,02,04,05,39,3.20
2016,02,04,05,40,4.80
2016,02,04,05,41,6.40
2016,02,04,05,42,6.40
2016,02,04,05,43,11.30
2016,02,04,05,44,16.10
2016,02,04,05,45,8.10
2016,02,04,05,46,4.80
2016,02,04,05,47,1.60
2016,02,04,05,48,4.80
2016,02,04,05,49,8.10
2016,02,04,05,50,16.10
2016,02,04,05,51,17.70
2016,02,04,05,52,14.50
2016,02,04,05,53,6.40
2016,02,04,05,54,9.60
2016,02,04,05,55,9.60
2016,02,04,05,56,11.30
2016,02,04,05,57,6.40
2016,02,04,05,58,6.40
2016,02,04,05,59,11.30
2016,02,04,06,00,9.60
2016,02,04,06,01,11.30
2016,02,04,06,02,9.60
2016,02,04,06,03,4.80
2016,02,04,06,04,6.40
2016,02,04,06,05,4.80
2016,02,04,06,06,11.30
2016,02,04,06,07,8.10
2016,02,04,06,08,3.20
2016,02,04,06,09,4.80
2016,02,04,06,10,3.20
2016,02,04,06,11,1.60
2016,02,04,06,12,8.10
2016,02,04,06,13,12.90
2016,02,04,06,14,6.40
2016,02,04,06,15,6.40
2016,02,04,06,16,6.40
2016,02,04,06,17,8.10
2016,02,04,06,18,12.90
2016,02,04,06,19,11.30
2016,02,04,06,20,6.40
2016,02,04,06,21,4.80
2016,02,04,06,22,3.20
2016,02,04,06,23,1.60
2016,02,04,06,24,4.80
2016,02,04,06,25,1.60
2016,02,04,06,27,3.20
2016,02,04,06,28,3.20
2016,02,04,06,29,3.20
2016,02,04,06,33,8.10
2016,02,04,06,34,6.40
2016,02,04,06,35,6.40
2016,02,04,06,36,3.20
2016,02,04,06,37,3.20
2016,02,04,06,38,6.40
2016,02,04,06,39,1.60
2016,02,04,06,43,3.20
2016,02,04,06,44,3.20
2016,02,04,06,45,4.80
2016,02,04,06,46,6.40
2016,02,04,06,47,8.10
2016,02,04,06,48,4.80
2016,02,04,06,49,8.10
2016,02,04,06,50,4.80
2016,02,04,06,51,3.20
2016,02,04,06,52,4.80
2016,02,04,06,53,3.20
2016,02,04,06,54,1.60
2016,02,04,07,01,3.20
2016,02,04,07,02,1.60
2016,02,04,07,03,3.20
2016,02,04,07,04,4.80
2016,02,04,07,05,3.20
2016,02,04,07,06,3.20
2016,02,04,07,07,1.60
2016,02,04,07,09,3.20
2016,02,04,07,10,4.80
2016,02,04,07,11,4.80
2016,02,04,07,12,3.20
2016,02,04,07,13,4.80
2016,02,04,07,14,1.60
2016,02,04,07,15,3.20
2016,02,04,07,16,3.20
2016,02,04,07,17,3.20
2016,02,04,07,18,3.20
2016,02,04,07,19,3.20
2016,02,04,07,20,4.80
2016,02,04,07,21,3.20
2016,02,04,07,22,3.20
2016,02,04,07,23,3.20
2016,02,04,07,24,1.60
2016,02,04,07,27,3.20
2016,02,04,07,28,4.80
2016,02,04,07,29,3.20
2016,02,04,07,30,3.20
2016,02,04,07,31,3.20
2016,02,04,07,32,3.20
2016,02,04,07,33,3.20
2016,02,04,07,34,4.80
2016,02,04,07,35,4.80
2016,02,04,07,36,1.60
2016,02,04,07,37,1.60
2016,02,04,07,42,1.60
2016,02,04,07,43,3.20
2016,02,04,07,44,3.20
2016,02,04,07,45,6.40
2016,02,04,07,46,4.80
2016,02,04,07,47,6.40
2016,02,04,07,48,8.10
2016,02,04,07,49,8.10
2016,02,04,07,50,8.10
2016,02,04,07,51,9.60
2016,02,04,07,52,4.80
2016,02,04,07,53,6.40
2016,02,04,07,54,8.10
2016,02,04,07,55,9.60
2016,02,04,07,56,8.10
2016,02,04,07,57,6.40
2016,02,04,07,58,6.40
2016,02,04,07,59,8.10
2016,02,04,08,00,3.20
2016,02,04,08,01,3.20
2016,02,04,08,02,4.80
2016,02,04,08,03,1.60
2016,02,04,08,04,3.20
2016,02,04,08,05,3.20
2016,02,04,08,06,3.20
2016,02,04,08,07,4.80
2016,02,04,08,08,4.80
2016,02,04,08,09,3.20
2016,02,04,08,10,3.20
2016,02,04,08,11,3.20
2016,02,04,08,12,4.80
2016,02,04,08,13,3.20
2016,02,04,08,14,3.20
2016,02,04,08,15,3.20
2016,02,04,08,16,3.20
2016,02,04,08,17,3.20
2016,02,04,08,18,3.20
2016,02,04,08,19,3.20
2016,02,04,08,20,4.80
2016,02,04,08,21,4.80
2016,02,04,08,22,4.80
2016,02,04,08,23,3.20
2016,02,04,08,24,1.60
2016,02,04,08,25,1.60
2016,02,04,08,36,6.40
2016,02,04,08,37,3.20
2016,02,04,08,43,1.60
2016,02,04,08,57,3.20
2016,02,04,08,58,4.80
2016,02,04,08,59,3.20
2016,02,04,09,00,4.80
2016,02,04,09,01,3.20
2016,02,04,09,03,3.20
2016,02,04,09,04,4.80
2016,02,04,09,05,3.20
2016,02,04,09,06,1.60
2016,02,04,09,07,4.80
2016,02,04,09,10,4.80
2016,02,04,09,11,8.10
2016,02,04,09,12,6.40
2016,02,04,09,13,4.80
2016,02,04,09,14,1.60
2016,02,04,09,25,3.20
2016,02,04,09,26,3.20
2016,02,04,09,27,3.20
2016,02,04,09,28,3.20
2016,02,04,09,29,3.20
2016,02,04,09,30,3.20
2016,02,04,09,31,3.20
2016,02,04,09,32,3.20
2016,02,04,09,33,3.20
2016,02,04,09,34,3.20
2016,02,04,09,35,3.20
2016,02,04,09,36,3.20
2016,02,04,09,38,1.60
2016,02,04,09,39,3.20
2016,02,04,09,40,3.20
2016,02,04,09,41,3.20
2016,02,04,09,42,3.20
2016,02,04,09,43,3.20
2016,02,04,09,44,1.60
2016,02,04,09,45,1.60
2016,02,04,09,50,1.60
2016,02,04,09,55,4.80
2016,02,04,09,56,6.40
2016,02,04,09,57,3.20
2016,02,04,09,58,4.80
2016,02,04,09,59,6.40
2016,02,04,10,00,8.10
2016,02,04,10,01,6.40
2016,02,04,10,02,8.10
2016,02,04,10,03,9.60
2016,02,04,10,04,14.50
2016,02,04,10,05,9.60
2016,02,04,10,06,9.60
2016,02,04,10,07,11.30
2016,02,04,10,08,12.90
2016,02,04,10,09,11.30
2016,02,04,10,10,9.60
2016,02,04,10,11,16.10
2016,02,04,10,12,14.50
2016,02,04,10,13,12.90
2016,02,04,10,14,8.10
2016,02,04,10,15,9.60
2016,02,04,10,16,11.30
2016,02,04,10,17,11.30
2016,02,04,10,18,8.10
2016,02,04,10,19,6.40
2016,02,04,10,20,9.60
2016,02,04,10,21,3.20
2016,02,04,10,22,8.10
2016,02,04,10,23,6.40
2016,02,04,10,24,3.20
2016,02,04,10,25,6.40
2016,02,04,10,26,11.30
2016,02,04,10,27,8.10
2016,02,04,10,28,8.10
2016,02,04,10,29,4.80
2016,02,04,10,30,4.80
2016,02,04,10,31,3.20
2016,02,04,10,32,4.80
2016,02,04,10,33,4.80
2016,02,04,10,34,8.10
2016,02,04,10,35,4.80
2016,02,04,10,37,3.20
2016,02,04,10,38,4.80
2016,02,04,10,39,4.80
2016,02,04,10,40,3.20
2016,02,04,10,41,4.80
2016,02,04,10,42,1.60
2016,02,04,10,43,3.20
2016,02,04,10,44,3.20
2016,02,04,10,45,3.20
2016,02,04,10,46,6.40
2016,02,04,10,47,6.40
2016,02,04,10,48,6.40
2016,02,04,10,49,4.80
2016,02,04,10,50,3.20
2016,02,04,10,51,1.60
2016,02,04,10,53,1.60
2016,02,04,11,04,3.20
2016,02,04,11,05,4.80
2016,02,04,11,06,3.20
2016,02,04,11,07,3.20
2016,02,04,11,08,3.20
2016,02,04,11,09,1.60
2016,02,04,11,16,1.60
2016,02,04,11,17,3.20
2016,02,04,11,20,6.40
2016,02,04,11,21,6.40
2016,02,04,11,22,8.10
2016,02,04,11,23,9.60
2016,02,04,11,24,11.30
2016,02,04,11,25,8.10
2016,02,04,11,26,8.10
2016,02,04,11,27,6.40
2016,02,04,11,28,8.10
2016,02,04,11,29,6.40
2016,02,04,11,30,8.10
2016,02,04,11,31,9.60
2016,02,04,11,32,11.30
2016,02,04,11,33,9.60
2016,02,04,11,34,11.30
2016,02,04,11,35,9.60
2016,02,04,11,36,8.10
2016,02,04,11,37,8.10
2016,02,04,11,38,16.10
2016,02,04,11,39,11.30
2016,02,04,11,40,11.30
2016,02,04,11,41,6.40
2016,02,04,11,42,9.60
2016,02,04,11,43,8.10
2016,02,04,11,44,8.10
2016,02,04,11,45,11.30
2016,02,04,11,46,14.50
2016,02,04,11,47,6.40
2016,02,04,11,48,6.40
2016,02,04,11,49,8.10
2016,02,04,11,50,4.80
2016,02,04,11,51,11.30
2016,02,04,11,52,8.10
2016,02,04,11,53,8.10
2016,02,04,11,54,4.80
2016,02,04,11,55,6.40
2016,02,04,11,56,8.10
2016,02,04,11,57,8.10
2016,02,04,11,58,8.10
2016,02,04,11,59,11.30
2016,02,04,12,00,9.60
2016,02,04,12,01,8.10
2016,02,04,12,02,9.60
2016,02,04,12,03,6.40
2016,02,04,12,04,9.60
2016,02,04,12,05,9.60
2016,02,04,12,06,9.60
2016,02,04,12,07,6.40
2016,02,04,12,08,9.60
2016,02,04,12,09,9.60
2016,02,04,12,10,6.40
2016,02,04,12,11,4.80
2016,02,04,12,12,8.10
2016,02,04,12,13,4.80
2016,02,04,12,14,6.40
2016,02,04,12,15,8.10
2016,02,04,12,16,8.10
2016,02,04,12,17,9.60
2016,02,04,12,18,6.40
2016,02,04,12,19,8.10
2016,02,04,12,20,9.60
2016,02,04,12,21,9.60
2016,02,04,12,22,9.60
2016,02,04,12,23,8.10
2016,02,04,12,24,14.50
2016,02,04,12,25,8.10
2016,02,04,12,26,11.30
2016,02,04,12,27,4.80
2016,02,04,12,28,4.80
2016,02,04,12,29,6.40
2016,02,04,12,30,3.20
2016,02,04,12,31,6.40
2016,02,04,12,32,4.80
2016,02,04,12,33,1.60
2016,02,04,12,36,6.40
2016,02,04,12,37,6.40
2016,02,04,12,38,3.20
2016,02,04,12,39,3.20
2016,02,04,12,40,3.20
2016,02,04,12,43,4.80
2016,02,04,12,44,3.20
2016,02,04,12,45,1.60
2016,02,04,12,46,1.60
2016,02,04,12,47,4.80
2016,02,04,12,48,3.20
2016,02,04,12,49,1.60
2016,02,04,12,53,6.40
2016,02,04,12,54,3.20
2016,02,04,12,55,4.80
2016,02,04,12,56,6.40
2016,02,04,12,57,4.80
2016,02,04,12,58,6.40
2016,02,04,12,59,4.80
2016,02,04,13,00,11.30
2016,02,04,13,01,8.10
2016,02,04,13,02,4.80
2016,02,04,13,03,4.80
2016,02,04,13,04,4.80
2016,02,04,13,05,3.20
2016,02,04,13,06,8.10
2016,02,04,13,07,9.60
2016,02,04,13,08,6.40
2016,02,04,13,09,8.10
2016,02,04,13,10,9.60
2016,02,04,13,11,8.10
2016,02,04,13,12,8.10
2016,02,04,13,13,8.10
2016,02,04,13,14,8.10
2016,02,04,13,15,6.40
2016,02,04,13,16,8.10
2016,02,04,13,17,11.30
2016,02,04,13,18,9.60
2016,02,04,13,19,8.10
2016,02,04,13,20,9.60
2016,02,04,13,21,22.50
2016,02,04,13,22,11.30
2016,02,04,13,23,12.90
2016,02,04,13,24,17.70
2016,02,04,13,25,14.50
2016,02,04,13,26,14.50
2016,02,04,13,27,22.50
2016,02,04,13,28,14.50
2016,02,04,13,29,14.50
2016,02,04,13,30,20.90
2016,02,04,13,31,17.70
2016,02,04,13,32,16.10
2016,02,04,13,33,16.10
2016,02,04,13,34,11.30
2016,02,04,13,35,8.10
2016,02,04,13,36,8.10
2016,02,04,13,37,16.10
2016,02,04,13,38,19.30
2016,02,04,13,39,22.50
2016,02,04,13,40,17.70
2016,02,04,13,41,9.60
2016,02,04,13,42,6.40
2016,02,04,13,43,11.30
2016,02,04,13,44,9.60
2016,02,04,13,45,9.60
2016,02,04,13,46,9.60
2016,02,04,13,47,11.30
2016,02,04,13,48,11.30
2016,02,04,13,49,9.60
2016,02,04,13,50,9.60
2016,02,04,13,51,17.70
2016,02,04,13,52,12.90
2016,02,04,13,53,8.10
2016,02,04,13,54,16.10
2016,02,04,13,55,9.60
2016,02,04,13,56,9.60
2016,02,04,13,57,14.50
2016,02,04,13,58,12.90
2016,02,04,13,59,14.50
2016,02,04,14,00,14.50
2016,02,04,14,01,9.60
2016,02,04,14,02,8.10
2016,02,04,14,03,9.60
2016,02,04,14,04,8.10
2016,02,04,14,05,9.60
2016,02,04,14,06,12.90
2016,02,04,14,07,6.40
2016,02,04,14,08,9.60
2016,02,04,14,09,8.10
2016,02,04,14,10,8.10
2016,02,04,14,11,16.10
2016,02,04,14,12,11.30
2016,02,04,14,13,19.30
2016,02,04,14,14,16.10
2016,02,04,14,15,6.40
2016,02,04,14,16,16.10
2016,02,04,14,17,11.30
2016,02,04,14,18,9.60
2016,02,04,14,19,9.60
2016,02,04,14,20,9.60
2016,02,04,14,21,9.60
2016,02,04,14,22,14.50
2016,02,04,14,23,17.70
2016,02,04,14,24,14.50
2016,02,04,14,25,16.10
2016,02,04,14,26,16.10
2016,02,04,14,27,12.90
2016,02,04,14,28,9.60
2016,02,04,14,29,11.30
2016,02,04,14,30,11.30
2016,02,04,14,31,11.30
2016,02,04,14,32,11.30
2016,02,04,14,33,8.10
2016,02,04,14,37,8.10
2016,02,04,14,38,11.30
2016,02,04,14,39,9.60
2016,02,04,14,40,8.10
2016,02,04,14,41,9.60
2016,02,04,14,42,9.60
2016,02,04,14,43,9.60
2016,02,04,14,44,9.60
2016,02,04,14,45,9.60
2016,02,04,14,46,9.60
2016,02,04,14,47,11.30
2016,02,04,14,48,9.60
2016,02,04,14,49,14.50
2016,02,04,14,50,14.50
2016,02,04,14,51,12.90
2016,02,04,14,52,19.30
2016,02,04,14,53,14.50
2016,02,04,14,54,17.70
2016,02,04,14,55,16.10
2016,02,04,14,56,14.50
2016,02,04,14,57,12.90
2016,02,04,14,58,16.10
2016,02,04,14,59,19.30
2016,02,04,15,00,12.90
2016,02,04,15,01,14.50
2016,02,04,15,02,19.30
2016,02,04,15,03,14.50
2016,02,04,15,04,16.10
2016,02,04,15,05,16.10
2016,02,04,15,06,9.60
2016,02,04,15,07,16.10
2016,02,04,15,08,19.30
2016,02,04,15,09,17.70
2016,02,04,15,10,8.10
2016,02,04,15,11,9.60
2016,02,04,15,12,9.60
2016,02,04,15,13,9.60
2016,02,04,15,14,8.10
2016,02,04,15,15,16.10
2016,02,04,15,16,8.10
2016,02,04,15,17,9.60
2016,02,04,15,18,9.60
2016,02,04,15,19,11.30
2016,02,04,15,20,16.10
2016,02,04,15,21,16.10
2016,02,04,15,22,11.30
2016,02,04,15,23,14.50
2016,02,04,15,24,6.40
2016,02,04,15,25,8.10
2016,02,04,15,26,6.40
2016,02,04,15,27,11.30
2016,02,04,15,28,9.60
2016,02,04,15,29,9.60
2016,02,04,15,30,11.30
2016,02,04,15,31,9.60
2016,02,04,15,32,11.30
2016,02,04,15,33,8.10
2016,02,04,15,34,4.80
2016,02,04,15,35,4.80
2016,02,04,15,36,8.10
2016,02,04,15,37,11.30
2016,02,04,15,38,8.10
2016,02,04,15,39,9.60
2016,02,04,15,40,8.10
2016,02,04,15,41,4.80
2016,02,04,15,42,6.40
2016,02,04,15,43,6.40
2016,02,04,15,44,6.40
2016,02,04,15,45,6.40
2016,02,04,15,46,6.40
2016,02,04,15,47,8.10
2016,02,04,15,48,6.40
2016,02,04,15,49,8.10
2016,02,04,15,50,4.80
2016,02,04,15,51,6.40
2016,02,04,15,52,6.40
2016,02,04,15,53,4.80
2016,02,04,15,54,4.80
2016,02,04,15,55,4.80
2016,02,04,15,56,6.40
2016,02,04,15,57,9.60
2016,02,04,15,58,4.80
2016,02,04,15,59,6.40
2016,02,04,16,00,4.80
2016,02,04,16,01,6.40
2016,02,04,16,02,6.40
2016,02,04,16,03,6.40
2016,02,04,16,04,4.80
2016,02,04,16,05,6.40
2016,02,04,16,06,8.10
2016,02,04,16,07,6.40
2016,02,04,16,08,6.40
2016,02,04,16,09,9.60
2016,02,04,16,10,6.40
2016,02,04,16,11,8.10
2016,02,04,16,12,6.40
2016,02,04,16,13,6.40
2016,02,04,16,14,6.40
2016,02,04,16,15,8.10
2016,02,04,16,16,8.10
2016,02,04,16,17,8.10
2016,02,04,16,18,8.10
2016,02,04,16,19,9.60
2016,02,04,16,20,9.60
2016,02,04,16,21,8.10
2016,02,04,16,22,4.80
2016,02,04,16,23,6.40
2016,02,04,16,24,8.10
2016,02,04,16,25,6.40
2016,02,04,16,26,8.10
2016,02,04,16,27,9.60
2016,02,04,16,28,12.90
2016,02,04,16,29,9.60
2016,02,04,16,30,9.60
2016,02,04,16,31,8.10
2016,02,04,16,32,9.60
2016,02,04,16,33,14.50
2016,02,04,16,34,9.60
2016,02,04,16,35,9.60
2016,02,04,16,36,8.10
2016,02,04,16,37,8.10
2016,02,04,16,38,9.60
2016,02,04,16,39,9.60
2016,02,04,16,40,14.50
2016,02,04,16,41,14.50
2016,02,04,16,42,14.50
2016,02,04,16,43,11.30
2016,02,04,16,44,11.30
2016,02,04,16,45,11.30
2016,02,04,16,46,9.60
2016,02,04,16,47,8.10
2016,02,04,16,48,9.60
2016,02,04,16,49,9.60
2016,02,04,16,50,11.30
2016,02,04,16,51,11.30
2016,02,04,16,52,9.60
2016,02,04,16,53,17.70
2016,02,04,16,54,14.50
2016,02,04,16,55,8.10
2016,02,04,16,56,9.60
2016,02,04,16,57,11.30
2016,02,04,16,58,16.10
2016,02,04,16,59,9.60
2016,02,04,17,00,9.60
2016,02,04,17,01,8.10
2016,02,04,17,02,6.40
2016,02,04,17,03,9.60
2016,02,04,17,04,9.60
2016,02,04,17,05,8.10
2016,02,04,17,06,8.10
2016,02,04,17,07,8.10
2016,02,04,17,08,8.10
2016,02,04,17,09,8.10
2016,02,04,17,10,6.40
2016,02,04,17,11,8.10
2016,02,04,17,12,8.10
2016,02,04,17,13,6.40
2016,02,04,17,14,8.10
2016,02,04,17,15,6.40
2016,02,04,17,16,6.40
2016,02,04,17,17,6.40
2016,02,04,17,18,8.10
2016,02,04,17,19,8.10
2016,02,04,17,20,6.40
2016,02,04,17,21,8.10
2016,02,04,17,22,8.10
2016,02,04,17,23,9.60
2016,02,04,17,24,8.10
2016,02,04,17,25,8.10
2016,02,04,17,26,6.40
2016,02,04,17,27,9.60
2016,02,04,17,28,14.50
2016,02,04,17,29,17.70
2016,02,04,17,30,14.50
2016,02,04,17,31,11.30
2016,02,04,17,32,8.10
2016,02,04,17,33,11.30
2016,02,04,17,34,11.30
2016,02,04,17,35,12.90
2016,02,04,17,36,14.50
2016,02,04,17,37,11.30
2016,02,04,17,38,9.60
2016,02,04,17,39,9.60
2016,02,04,17,40,8.10
2016,02,04,17,41,8.10
2016,02,04,17,42,9.60
2016,02,04,17,43,11.30
2016,02,04,17,44,9.60
2016,02,04,17,45,9.60
2016,02,04,17,46,14.50
2016,02,04,17,47,9.60
2016,02,04,17,48,14.50
2016,02,04,17,49,9.60
2016,02,04,17,50,14.50
2016,02,04,17,51,6.40
2016,02,04,17,52,6.40
2016,02,04,17,53,8.10
2016,02,04,17,54,9.60
2016,02,04,17,55,6.40
2016,02,04,17,56,9.60
2016,02,04,17,57,9.60
2016,02,04,17,58,8.10
2016,02,04,17,59,8.10
2016,02,04,18,00,8.10
2016,02,04,18,01,8.10
2016,02,04,18,02,8.10
2016,02,04,18,03,16.10
2016,02,04,18,04,12.90
2016,02,04,18,05,8.10
2016,02,04,18,06,14.50
2016,02,04,18,07,9.60
2016,02,04,18,08,11.30
2016,02,04,18,09,12.90
2016,02,04,18,10,3.20
2016,02,04,18,11,8.10
2016,02,04,18,12,9.60
2016,02,04,18,13,17.70
2016,02,04,18,14,9.60
2016,02,04,18,15,9.60
2016,02,04,18,16,8.10
2016,02,04,18,17,8.10
2016,02,04,18,18,11.30
2016,02,04,18,19,8.10
2016,02,04,18,20,9.60
2016,02,04,18,21,11.30
2016,02,04,18,22,8.10
2016,02,04,18,23,8.10
2016,02,04,18,24,9.60
2016,02,04,18,25,12.90
2016,02,04,18,26,9.60
2016,02,04,18,27,9.60
2016,02,04,18,28,12.90
2016,02,04,18,29,14.50
2016,02,04,18,30,9.60
2016,02,04,18,31,9.60
2016,02,04,18,32,17.70
2016,02,04,18,33,9.60
2016,02,04,18,34,12.90
2016,02,04,18,35,11.30
2016,02,04,18,36,14.50
2016,02,04,18,37,11.30
2016,02,04,18,38,11.30
2016,02,04,18,39,11.30
2016,02,04,18,40,11.30
2016,02,04,18,41,11.30
2016,02,04,18,42,14.50
2016,02,04,18,43,12.90
2016,02,04,18,44,11.30
2016,02,04,18,45,8.10
2016,02,04,18,46,9.60
2016,02,04,18,47,6.40
2016,02,04,18,48,8.10
2016,02,04,18,49,11.30
2016,02,04,18,50,14.50
2016,02,04,18,51,14.50
2016,02,04,18,52,11.30
2016,02,04,18,53,14.50
2016,02,04,18,54,17.70
2016,02,04,18,55,11.30
2016,02,04,18,56,17.70
2016,02,04,18,57,14.50
2016,02,04,18,58,14.50
2016,02,04,18,59,8.10
2016,02,04,19,00,12.90
2016,02,04,19,01,11.30
2016,02,04,19,02,9.60
2016,02,04,19,03,11.30
2016,02,04,19,04,14.50
2016,02,04,19,05,14.50
2016,02,04,19,06,8.10
2016,02,04,19,07,16.10
2016,02,04,19,08,16.10
2016,02,04,19,09,11.30
2016,02,04,19,10,17.70
2016,02,04,19,11,11.30
2016,02,04,19,12,16.10
2016,02,04,19,13,12.90
2016,02,04,19,14,11.30
2016,02,04,19,15,20.90
2016,02,04,19,16,14.50
2016,02,04,19,17,19.30
2016,02,04,19,18,19.30
2016,02,04,19,19,19.30
2016,02,04,19,20,14.50
2016,02,04,19,21,17.70
2016,02,04,19,22,14.50
2016,02,04,19,23,25.70
2016,02,04,19,24,17.70
2016,02,04,19,25,16.10
2016,02,04,19,26,9.60
2016,02,04,19,27,19.30
2016,02,04,19,28,11.30
2016,02,04,19,29,11.30
2016,02,04,19,30,11.30
2016,02,04,19,31,11.30
2016,02,04,19,32,16.10
2016,02,04,19,33,14.50
2016,02,04,19,34,9.60
2016,02,04,19,35,14.50
2016,02,04,19,36,8.10
2016,02,04,19,37,17.70
2016,02,04,19,38,14.50
2016,02,04,19,39,14.50
2016,02,04,19,40,12.90
2016,02,04,19,41,11.30
2016,02,04,19,42,8.10
2016,02,04,19,43,11.30
2016,02,04,19,44,9.60
2016,02,04,19,45,14.50
2016,02,04,19,46,12.90
2016,02,04,19,47,14.50
2016,02,04,19,48,11.30
2016,02,04,19,49,9.60
2016,02,04,19,50,14.50
2016,02,04,19,51,16.10
2016,02,04,19,52,9.60
2016,02,04,19,53,8.10
2016,02,04,19,54,8.10
2016,02,04,19,55,9.60
2016,02,04,19,56,9.60
2016,02,04,19,57,9.60
2016,02,04,19,58,8.10
2016,02,04,19,59,8.10
2016,02,04,20,00,8.10
2016,02,04,20,01,11.30
2016,02,04,20,02,16.10
2016,02,04,20,03,11.30
2016,02,04,20,04,9.60
2016,02,04,20,05,8.10
2016,02,04,20,06,11.30
2016,02,04,20,07,9.60
2016,02,04,20,08,6.40
2016,02,04,20,09,9.60
2016,02,04,20,10,8.10
2016,02,04,20,11,9.60
2016,02,04,20,12,8.10
2016,02,04,20,13,6.40
2016,02,04,20,14,6.40
2016,02,04,20,15,9.60
2016,02,04,20,16,16.10
2016,02,04,20,17,16.10
2016,02,04,20,18,8.10
2016,02,04,20,19,14.50
2016,02,04,20,20,6.40
2016,02,04,20,21,4.80
2016,02,04,20,22,6.40
2016,02,04,20,23,6.40
2016,02,04,20,24,8.10
2016,02,04,20,25,11.30
2016,02,04,20,26,14.50
2016,02,04,20,27,8.10
2016,02,04,20,28,11.30
2016,02,04,20,29,11.30
2016,02,04,20,30,12.90
2016,02,04,20,31,9.60
2016,02,04,20,32,12.90
2016,02,04,20,33,17.70
2016,02,04,20,34,16.10
2016,02,04,20,35,11.30
2016,02,04,20,36,11.30
2016,02,04,20,37,16.10
2016,02,04,20,38,11.30
2016,02,04,20,39,14.50
2016,02,04,20,40,16.10
2016,02,04,20,41,14.50
2016,02,04,20,42,14.50
2016,02,04,20,43,11.30
2016,02,04,20,44,11.30
2016,02,04,20,45,19.30
2016,02,04,20,46,16.10
2016,02,04,20,47,12.90
2016,02,04,20,48,11.30
2016,02,04,20,49,16.10
2016,02,04,20,50,9.60
2016,02,04,20,51,9.60
2016,02,04,20,52,14.50
2016,02,04,20,53,16.10
2016,02,04,20,54,24.20
2016,02,04,20,55,11.30
2016,02,04,20,56,14.50
2016,02,04,20,57,16.10
2016,02,04,20,58,11.30
2016,02,04,20,59,14.50
2016,02,04,21,00,14.50
2016,02,04,21,01,14.50
2016,02,04,21,02,11.30
2016,02,04,21,03,16.10
2016,02,04,21,04,16.10
2016,02,04,21,05,16.10
2016,02,04,21,06,14.50
2016,02,04,21,07,12.90